Hourly Data Report for October 05, 2014

All times are specified in Local Standard Time (LST). Add 1 hour to adjust for Daylight Saving Time where and when it is observed.

FREDERICTON
NEW BRUNSWICK

45°52'08.000" N
66°32'14.000" W
20.70 m
8101505
71700
YFC

Download Data

Hourly Data (October 2014)
Hourly Data Report for October 5, 2014
Temp Definition
°C
Dew Point Temp Definition
°C
Rel Hum Definition
%
Wind Dir Definition
10's deg

Wind Spd Definition
km/h
Visibility Definition
km
Stn Press Definition
kPa
Hmdx Definition


Wind Chill Definition


Weather Definition


TIME
00:00 Legend Double Dagger 16.4 15.1 92 9 15 16.1 100.47     LegendNANA
01:00 Legend Double Dagger 15.9 15.1 95 9 9 8.1 100.41     Fog
02:00 Legend Double Dagger 15.7 15.1 96 9 15 16.1 100.30     LegendNANA
03:00 Legend Double Dagger 15.8 14.9 94 11 13 16.1 100.28     LegendNANA
04:00 Legend Double Dagger 16.0 15.1 94 11 15 16.1 100.20     Rain
05:00 Legend Double Dagger 16.1 15.3 95 12 21 16.1 100.18     LegendNANA
06:00 Legend Double Dagger 16.1 15.5 96 13 15 4.8 100.16     Rain,Fog
07:00 Legend Double Dagger 16.2 15.6 96 10 11 11.3 100.10     Rain
08:00 Legend Double Dagger 16.4 15.6 95 13 9 9.7 100.05     Rain,Fog
09:00 Legend Double Dagger 16.9 16.1 95 11 15 16.1 100.03     Rain
10:00 Legend Double Dagger 17.1 16.6 97 16 15 4.8 100.04     Rain,Fog
11:00 Legend Double Dagger 17.5 16.5 94 14 15 16.1 99.98     LegendNANA
12:00 Legend Double Dagger 17.7 17.1 96 15 21 6.4 100.01     Rain,Fog
13:00 Legend Double Dagger 17.5 16.9 96 18 11 12.9 100.00     Moderate Rain
14:00 Legend Double Dagger 17.0 15.2 89 22 15 16.1 100.07     LegendNANA
15:00 Legend Double Dagger 16.5 15.0 91 17 5 16.1 100.14     Rain
16:00 Legend Double Dagger 16.3 15.3 93 15 9 16.1 100.08     Rain
17:00 Legend Double Dagger 14.5 12.9 90 30 13 16.1 100.26     LegendNANA
18:00 Legend Double Dagger 12.9 12.0 94 30 11 12.9 100.36     Rain
19:00 Legend Double Dagger 12.4 11.3 93 27 5 16.1 100.45     LegendNANA
20:00 Legend Double Dagger 11.2 10.3 94 24 8 16.1 100.49     LegendNANA
21:00 Legend Double Dagger 10.8 10.1 95 23 8 16.1 100.61     LegendNANA
22:00 Legend Double Dagger 9.6 9.3 98 21 5 16.1 100.72     LegendNANA
23:00 Legend Double Dagger 7.4 7.1 98 19 5 0.8 100.77     Fog

Notes on Data Quality.

Legend

  • E = Estimated
  • M = Missing
  • NA = Not Available
  • ‡ = Partner data that is not subject to review by the National Climate Archives
Date modified: